KHEG Airport (Herlong Recreational) Information

FAA: HEG - ICAO: KHEG

KHEG Airport Location

State Florida
County Duval
City Jacksonville
KHEG Airport is 8 miles southwest of Jacksonville, FL.
Latitude 30-16-40.0000N
Longitude 081-48-21.4000W
Elevation 85ft

KHEG Airport METARs

METAR KHEG 121555Z AUTO 19007KT 8SM CLR 31/24 A3010 RMK AO2
Altimeter 30.10"
Temperature 31.0°C (87.8°F)
Wind 190° at 7KT
Clouds Skies are clear.
Visibility 8.0mi
Time observed: 2022-08-12T15:55:00Z

KHEG Airport Details

Status Operational
Activation January 1940
Ownership Public
Usage Public
Chart JACKSONVILLE
ATC on-site No
Beacon schedule sunset-sunrise
Beacon color clear green

KHEG Airport Contacts

Owner JACKSONVILLE AVIATION AUTHORITY
Owner address 14201 PECAN PARK ROAD, JACKSONVILLE, FL 32218
Owner phone (904) 741-2069
Manager ROBERT SAMONS
Manager address 502 WEST HIGHLAND BLVD, INVERNESS, FL 34452
Manager phone 352-344-6600

KHEG Airport (Herlong Recreational) Radio Frequencies

KHEG (Airport) Radio Frequencies

UNICOM 123
Common traffic advisory frequency (CTAF) 123